Theta_e
333 335 335 335 334 334 333 331 331 332 331 329 329 331 332 332 334 335 333 331 331 332 334 332 334 336 338 335 338 337 334 330 322 323 325 327 326 326 327 327 330 327 326
332 333 334 334 335 334 333 332 331 330 331 329 329 329 330 332 334 333 330 328 329 330 329 333 333 333 337 338 335 333 330 328 324 321 323 324 324 326 328 327 328 329 329
331 332 333 333 333 333 333 334 332 330 330 329 330 329 330 331 333 333 332 328 328 331 333 334 334 336 335 335 335 331 327 327 325 322 321 325 325 327 325 329 328 329 326
329 331 332 333 334 334 333 332 332 331 330 332 332 331 331 330 332 332 330 328 330 332 332 334 334 333 335 334 334 333 331 327 326 323 321 321 323 326 326 324 321 323 321
328 329 331 333 334 333 332 332 332 332 332 332 332 331 332 331 329 330 329 333 332 330 331 331 331 327 321 328 336 331 332 328 325 322 319 320 320 321 321 324 320 320 323
327 328 330 330 331 332 332 332 332 332 332 331 331 331 331 328 307 315 325 331 333 333 332 330 331 326 317 313 315 316 329 329 323 321 319 318 319 322 324 323 322 319 317
327 327 328 329 330 331 331 331 331 332 334 332 332 332 331 330 305 306 311 331 334 333 334 333 329 328 326 326 313 313 313 312 319 327 320 319 322 328 329 328 326 322 321
326 326 328 328 330 331 332 331 333 334 334 333 333 333 331 326 303 303 309 333 334 333 333 333 333 330 330 331 329 326 327 327 329 328 325 327 335 335 336 332 331 332 328
323 326 327 328 329 329 330 333 334 334 334 333 333 333 332 328 302 303 316 328 332 331 333 334 332 333 307 309 331 329 328 322 308 308 312 312 310 312 322 327 326 323 321
322 326 328 329 329 329 332 332 335 334 332 331 332 334 321 330 301 302 315 328 331 330 333 333 308 325 302 307 333 331 328 328 327 327 327 319 323 320 310 336 328 323 324
323 326 328 330 331 332 334 333 334 332 331 331 332 333 332 327 323 300 305 333 332 329 330 329 327 300 301 305 312 335 328 330 323 329 329 331 333 330 329 332 334 330 325
322 324 327 330 329 331 334 332 332 331 331 331 332 331 332 330 314 303 301 312 317 331 330 330 319 297 299 301 309 298 305 316 331 329 327 325 326 327 329 332 335 335 331
323 323 326 329 330 332 332 331 328 329 327 328 328 328 330 331 330 301 301 304 308 328 332 313 299 298 298 305 297 297 301 330 330 328 327 328 329 330 333 330 329 325 324
323 324 325 327 329 331 330 329 327 325 323 324 326 327 328 330 330 330 328 326 308 323 309 319 313 311 301 314 314 312 325 328 329 327 323 323 325 325 323 323 319 317 314
324 324 324 324 328 329 330 329 327 329 322 322 323 326 327 328 329 321 323 330 331 322 325 326 327 328 327 328 328 325 325 325 325 326 324 323 322 322 321 321 318 316 313
324 324 322 321 323 327 329 329 297 304 305 303 304 314 323 308 303 303 305 302 299 301 324 326 326 326 325 326 325 324 324 319 324 326 325 323 321 320 319 320 319 318 316
328 328 323 317 321 321 324 327 326 316 302 300 301 302 303 306 298 298 297 295 295 300 324 324 323 324 325 325 324 324 323 324 327 325 324 324 322 321 316 318 318 318 315
329 308 325 321 321 320 322 323 324 324 324 325 303 308 300 296 294 294 294 300 314 311 323 322 321 322 321 321 322 322 322 323 324 325 324 325 323 321 317 318 318 316 311
326 323 324 323 322 318 321 322 322 323 322 323 324 306 302 294 292 291 294 323 323 323 323 322 323 322 323 322 321 320 321 321 322 324 324 324 323 321 318 318 317 303 301
327 312 315 322 322 321 321 321 320 321 322 323 323 325 325 313 320 318 314 320 324 322 322 322 323 324 324 323 323 323 322 321 322 323 323 323 323 321 319 318 315 306 304
327 325 315 322 321 321 320 321 321 321 320 321 323 322 305 324 325 326 324 324 325 325 325 324 322 321 321 322 323 323 322 322 323 322 322 322 322 320 319 316 312 306 305
329 327 323 322 322 321 321 321 321 321 321 321 322 319 296 324 324 324 326 325 324 325 326 326 324 323 322 321 320 321 321 321 322 322 322 321 321 320 319 315 308 305 304
328 327 325 324 323 314 321 321 320 321 321 322 322 321 320 323 323 323 325 327 327 325 325 325 325 324 324 323 322 321 320 319 321 322 322 321 320 319 317 311 307 305 302
328 327 326 324 324 324 323 323 322 311 320 321 321 322 323 324 324 324 325 327 327 327 326 324 324 324 324 324 325 325 325 324 323 320 322 321 319 313 314 310 308 306 301
328 328 327 326 325 325 325 325 324 325 323 323 322 323 324 325 325 325 326 326 327 327 327 326 325 326 326 327 327 327 316 294 317 310 322 321 318 316 311 309 308 304 301
328 328 328 328 326 326 325 326 326 327 326 326 326 326 326 326 327 327 327 327 327 327 327 327 327 326 326 326 326 313 293 292 307 294 318 319 316 314 310 307 303 298 295
Wind_Speed
10 9 7 6 7 7 6 7 7 7 6 6 5 4 2 3 3 3 1 3 5 4 4 4 5 6 4 3 4 5 8 7 12 9 15 15 15 14 13 10 9 9 8
10 9 8 6 6 6 7 7 7 7 7 5 5 4 3 2 2 3 6 3 3 5 4 5 6 6 6 7 8 9 9 12 13 13 15 13 13 15 13 11 8 8 7
9 8 7 6 6 6 7 6 7 7 6 5 5 6 5 4 4 5 10 5 3 5 6 5 8 9 8 8 9 11 10 9 9 11 13 10 9 10 10 10 9 9 8
9 7 7 6 6 7 8 7 7 7 7 7 6 7 6 5 6 8 6 5 4 6 5 7 8 5 8 11 10 14 13 12 12 10 11 11 9 9 8 11 10 8 9
9 9 8 6 7 9 9 8 7 7 6 7 8 7 8 6 5 7 4 7 7 7 6 8 7 9 10 8 9 11 14 12 13 12 9 10 9 10 10 8 11 9 9
10 10 8 8 9 9 9 9 8 7 7 7 6 7 7 7 8 8 3 3 7 9 11 10 10 11 11 14 12 11 13 16 15 12 9 11 9 8 6 10 11 10 8
11 11 10 9 10 10 10 10 8 8 7 7 8 7 8 9 5 2 8 3 6 5 10 11 10 8 11 13 14 16 15 13 8 15 15 11 12 12 11 10 11 10 9
12 12 11 11 11 10 10 10 8 7 7 6 5 7 7 8 5 1 5 5 5 8 9 10 13 10 11 14 14 14 12 11 8 7 10 10 10 11 11 9 9 8 10
13 12 12 11 11 10 10 9 8 8 7 5 6 8 10 9 5 5 3 4 6 9 8 10 10 14 9 10 15 16 14 8 9 10 9 9 9 9 9 11 10 11 10
14 14 13 12 11 10 10 9 8 8 7 6 6 8 9 10 6 6 5 6 8 6 10 12 13 13 8 5 11 14 14 13 11 11 9 9 11 8 5 8 10 9 8
14 13 13 12 11 9 9 8 7 7 8 6 7 8 8 9 7 1 3 8 6 8 9 9 9 9 8 8 3 9 11 12 10 11 11 10 10 10 7 5 6 5 9
14 14 13 11 9 9 9 8 8 8 8 8 9 8 9 8 8 4 2 5 5 9 8 9 7 8 8 8 4 7 11 12 9 10 10 11 11 9 8 6 4 4 6
15 14 13 13 10 11 10 10 8 8 7 8 8 8 8 8 8 8 6 6 6 5 8 11 13 9 7 9 8 8 10 8 8 8 9 8 8 7 9 8 9 10 11
16 15 13 13 12 11 10 9 8 7 7 7 8 8 8 9 9 8 7 6 7 8 9 8 7 5 5 10 7 5 5 6 7 7 7 8 8 9 8 9 9 8 9
16 15 14 12 12 11 10 9 9 8 6 7 7 8 9 9 9 11 10 9 8 9 9 7 8 8 7 7 7 7 6 6 6 6 8 8 8 8 8 8 8 8 7
17 14 13 12 12 11 11 8 8 8 8 6 1 3 8 6 15 12 8 8 12 14 8 9 9 9 10 9 9 8 7 6 7 7 7 8 9 9 9 8 9 8 8
15 15 13 12 12 12 11 11 10 3 7 4 1 1 6 13 13 13 11 10 10 9 8 9 9 10 10 11 10 10 9 8 8 8 8 9 9 9 9 9 9 8 7
19 15 13 14 12 12 12 11 10 11 11 9 6 7 6 9 12 12 13 12 6 6 9 9 10 10 10 10 10 10 9 9 9 9 9 9 9 9 9 9 9 9 9
18 15 15 13 13 13 12 11 11 11 11 11 11 6 8 9 9 10 15 10 11 11 11 10 10 10 10 10 10 10 11 10 10 10 9 10 10 10 10 10 10 11 12
18 17 16 13 13 13 12 12 12 12 11 11 11 11 11 9 9 10 11 11 11 11 11 12 11 10 10 11 11 11 11 10 11 11 11 11 11 11 11 12 10 11 12
16 16 17 14 14 14 14 13 13 12 12 12 11 11 14 13 13 13 13 13 14 13 12 12 12 12 12 11 11 11 12 12 13 13 12 12 12 13 11 10 13 13 13
16 16 17 17 14 14 14 14 14 14 14 13 12 11 17 13 13 13 14 14 14 15 13 13 12 12 12 12 13 13 13 13 13 13 13 13 12 13 13 12 11 12 14
16 17 17 16 16 14 13 14 14 15 14 14 13 13 12 13 13 13 13 12 13 13 14 14 14 13 13 13 13 13 14 14 13 13 13 13 13 13 12 12 14 15 15
17 18 18 16 16 16 15 15 15 16 16 15 14 14 13 13 14 15 14 13 13 13 13 13 14 17 14 14 12 13 13 13 12 13 17 15 15 13 13 14 15 16 12
16 16 16 15 15 15 15 14 15 14 15 15 14 14 14 14 13 14 14 14 13 13 14 14 13 17 21 21 18 19 15 11 14 11 12 15 15 15 14 12 16 14 18
15 14 13 12 12 12 12 10 11 12 14 13 14 13 13 14 13 13 13 13 13 14 15 12 15 21 21 19 22 18 8 9 9 9 11 12 13 13 14 15 21 13 17
Wind_Direction
168 164 151 157 148 147 147 155 159 169 180 184 171 186 195 175 166 187 63 214 172 154 138 178 197 165 139 121 80 105 85 96 101 117 124 128 130 122 122 126 132 121 119
167 166 158 154 164 150 151 151 162 180 190 172 160 171 180 158 142 108 116 84 107 135 129 160 151 141 122 131 117 112 101 106 114 121 129 122 120 123 131 126 125 124 130
162 157 146 149 159 167 149 147 169 171 176 170 151 150 145 115 103 81 75 64 93 123 152 128 134 144 135 126 121 118 116 109 111 123 124 116 116 121 115 121 120 134 115
162 153 140 144 147 153 142 147 159 167 166 154 140 120 123 102 85 87 86 99 81 89 148 121 107 119 125 131 130 134 129 128 121 108 116 122 122 122 127 136 132 120 127
153 145 130 129 136 143 142 148 147 159 151 138 138 131 116 124 92 103 111 111 127 118 95 82 67 75 60 98 132 135 133 128 132 124 126 126 130 143 151 142 124 127 128
154 137 137 137 136 137 141 142 147 133 136 136 136 132 127 89 55 20 22 103 107 104 102 103 100 93 74 75 71 82 136 140 139 135 134 144 141 137 144 137 136 143 138
160 145 144 144 139 144 144 143 137 143 136 135 141 142 122 119 114 35 338 110 107 102 107 116 116 110 119 101 85 80 76 80 120 148 144 153 165 155 160 146 155 166 141
163 157 151 152 142 141 146 137 142 148 143 140 148 133 128 109 138 150 324 108 110 111 112 114 119 130 116 127 121 115 109 105 119 137 137 156 158 151 158 152 166 121 124
166 163 162 154 150 146 134 141 149 154 138 134 138 147 128 132 161 191 170 127 138 110 119 113 122 121 122 140 132 128 116 99 62 73 113 147 147 149 171 149 152 153 156
170 169 169 159 156 153 134 138 149 153 146 141 134 126 120 131 159 200 255 137 118 114 115 99 62 107 80 68 131 131 135 142 142 134 118 106 135 125 169 189 179 163 162
169 170 172 168 166 156 143 143 147 164 135 134 111 125 127 128 138 118 337 138 142 127 123 123 110 107 97 78 114 142 135 140 132 131 136 144 149 159 161 171 196 189 171
170 172 171 170 186 162 159 152 150 142 148 145 138 148 130 146 130 125 41 43 125 141 140 126 124 96 77 47 74 108 120 149 156 150 146 149 156 164 149 150 130 36 38
173 174 171 175 187 162 166 162 157 168 156 160 160 142 140 146 146 110 88 121 37 145 121 92 109 117 117 96 104 149 180 166 156 155 148 148 155 132 121 128 112 108 96
176 176 175 181 179 175 179 175 174 177 172 174 165 154 149 151 146 157 154 152 137 117 129 131 128 129 50 97 148 187 161 154 163 151 145 132 129 154 159 156 150 143 127
178 178 180 185 187 179 199 183 186 182 186 180 171 163 165 171 164 162 165 168 174 137 146 154 173 183 178 175 174 172 156 160 178 157 148 159 164 163 159 162 158 159 153
183 182 184 185 183 189 191 177 59 29 124 65 2 210 164 125 132 153 154 112 117 146 190 180 186 190 193 186 187 182 184 186 187 176 173 180 175 176 170 176 176 188 168
192 184 183 197 182 194 193 192 189 142 72 114 40 225 18 147 152 156 147 135 155 163 214 193 195 197 199 197 199 197 195 193 193 195 190 189 186 191 175 185 189 187 165
190 182 195 195 188 192 193 197 199 192 195 194 198 212 185 147 148 145 139 143 154 225 230 204 206 202 207 207 207 209 206 195 203 207 200 197 195 192 192 193 189 178 164
187 189 199 189 195 195 189 196 200 198 192 195 177 177 117 105 127 145 172 207 203 208 216 228 214 212 208 212 212 214 212 212 201 208 205 204 198 199 195 197 187 176 154
193 192 191 196 195 194 198 196 199 202 200 204 201 187 164 161 183 185 198 218 228 219 216 221 226 225 218 215 215 215 213 207 201 210 209 204 201 203 200 195 173 164 175
190 184 187 204 200 195 201 201 200 200 204 206 208 196 163 193 201 204 200 210 218 226 223 224 221 222 223 222 217 215 216 214 211 211 213 207 204 204 202 190 158 177 181
191 185 187 204 197 198 203 203 205 207 206 206 206 193 161 201 214 209 210 207 216 222 225 222 225 223 221 222 219 220 221 221 217 214 216 215 208 208 205 179 162 172 175
194 191 183 200 205 200 193 203 203 209 211 211 209 202 182 204 219 221 211 214 212 219 218 224 222 225 224 221 222 222 223 225 223 218 219 214 207 205 198 180 180 176 170
206 196 190 194 202 202 203 205 207 206 208 210 212 219 193 202 211 223 218 212 215 215 221 221 222 221 225 226 221 222 221 223 226 219 213 215 207 191 185 187 187 170 160
219 201 200 195 201 204 203 211 213 214 213 221 215 211 222 213 213 217 217 215 213 216 217 220 222 222 223 223 223 220 219 193 220 220 208 218 207 188 190 179 172 164 162
229 197 203 195 196 193 206 211 229 228 229 222 221 224 218 219 220 220 217 217 216 215 215 216 224 226 226 226 229 228 186 173 178 179 196 201 201 189 182 171 159 154 151